COSMOS 2428 DEB

基本信息
目录编号:
59047
目录名称:
COSMOS 2428 DEB
国际标识:
2007-029T
轨道中心:
EARTH
物体状态:
已陨落(2024-07-24)
发射日期:
2007-06-29 UTC
轨道信息
数据来源: 国际轨道数据
星历时间: 2024-07-18T12:54:36+0800
半长轴: 6952.726km
偏心率: 0.0022024
轨道倾角: 70.895°
近地点辐角: 154.547°
升交点赤经: 5.686°
平近点角: 205.679°
近地点: 559.278km
远地点: 589.904km
周期: 96.160分钟
每日圈数: 14.975115
详细信息
发射场:
TTMTR
轨道高度:
LEO
数据来源:
AOE Integration Group
参考系:
TEME
时间系统:
UTC
历元类型:
SGP4
2D轨道图
3D轨道图
轨道高度分析图
轨道倾角分析图
轨道综合分析图
查看轨道综合分析图